TimeEST,TemperatureF,Dew PointF,Humidity,Sea Level PressureIn,VisibilityMPH,Wind Direction,Wind SpeedMPH,Gust SpeedMPH,PrecipitationIn,Events,Conditions,WindDirDegrees,DateUTC
12:53 AM,12.0,5.0,73,29.95,10.0,Calm,Calm,-,N/A,,Clear,0,2014-02-26 05:53:00
1:53 AM,10.0,3.9,76,29.95,10.0,Calm,Calm,-,N/A,,Clear,0,2014-02-26 06:53:00
2:53 AM,8.1,1.9,76,29.92,10.0,Calm,Calm,-,N/A,,Clear,0,2014-02-26 07:53:00
3:53 AM,8.1,1.9,76,29.91,10.0,Calm,Calm,-,N/A,,Clear,0,2014-02-26 08:53:00
4:53 AM,9.0,3.9,80,29.90,10.0,Calm,Calm,-,N/A,,Clear,0,2014-02-26 09:53:00
5:53 AM,10.9,5.0,77,29.88,10.0,Calm,Calm,-,N/A,,Mostly Cloudy,0,2014-02-26 10:53:00
6:53 AM,10.9,5.0,77,29.87,10.0,Calm,Calm,-,N/A,,Clear,0,2014-02-26 11:53:00
7:53 AM,15.1,8.1,74,29.88,7.0,Calm,Calm,-,N/A,,Mostly Cloudy,0,2014-02-26 12:53:00
8:53 AM,21.0,9.0,60,29.88,10.0,SW,5.8,-,N/A,,Partly Cloudy,230,2014-02-26 13:53:00
9:53 AM,23.0,10.0,58,29.89,10.0,South,3.5,-,N/A,,Overcast,170,2014-02-26 14:53:00
10:53 AM,26.1,10.0,51,29.89,10.0,West,13.8,-,N/A,,Overcast,270,2014-02-26 15:53:00
11:53 AM,28.0,10.9,49,29.86,10.0,WSW,13.8,19.6,N/A,,Mostly Cloudy,240,2014-02-26 16:53:00
12:53 PM,27.0,8.1,45,29.84,10.0,West,16.1,23.0,N/A,,Overcast,260,2014-02-26 17:53:00
1:53 PM,27.0,7.0,43,29.84,10.0,West,17.3,24.2,N/A,,Partly Cloudy,260,2014-02-26 18:53:00
2:53 PM,26.1,3.0,37,29.84,10.0,West,18.4,26.5,N/A,,Clear,260,2014-02-26 19:53:00
3:53 PM,25.0,-2.0,31,29.84,10.0,West,13.8,-,N/A,,Clear,280,2014-02-26 20:53:00
4:53 PM,23.0,-4.0,31,29.85,10.0,WNW,10.4,21.9,N/A,,Clear,300,2014-02-26 21:53:00
5:53 PM,21.0,-5.1,32,29.85,10.0,West,10.4,-,N/A,,Clear,270,2014-02-26 22:53:00
6:53 PM,19.9,-4.0,35,29.86,10.0,NW,6.9,-,N/A,,Clear,320,2014-02-26 23:53:00
7:53 PM,18.0,-5.1,36,29.86,10.0,NNW,5.8,-,N/A,,Clear,340,2014-02-27 00:53:00
8:53 PM,16.0,-4.0,41,29.88,10.0,Calm,Calm,-,N/A,,Clear,0,2014-02-27 01:53:00
9:53 PM,10.9,-0.9,59,29.88,10.0,Calm,Calm,-,N/A,,Clear,0,2014-02-27 02:53:00
10:53 PM,10.0,-2.9,56,29.88,10.0,Calm,Calm,-,N/A,,Clear,0,2014-02-27 03:53:00
11:53 PM,7.0,-2.9,64,29.89,10.0,Calm,Calm,-,N/A,,Clear,0,2014-02-27 04:53:00